Tracking 19242 objects as of 16-Aug-2018
HD Live streaming from Space Station
objects crossing your sky now

ARIANE 5 R/B

Track ARIANE 5 R/B now!


NORAD ID: 35944
Int'l Code: 2009-054C
Perigee: 238.8 km
Apogee: 32,754.0 km
Inclination: 3.3 °
Period: 573.6 minutes
Semi major axis: 22867 km
RCS: 22.8192 m2 (large)
Launch date: September 30, 2009
Source: France (FR)
Launch site: FRENCH GUIANA (FRGUI)

Note: This is a ROCKET BODY
aabbcc
Your satellite tracking list
Your tracking list is empty




NASA's NSSDC Master Catalog

Two Line Element Set (TLE):
1 35944U 09054C   18227.75865229 +.00003014 +00000-0 +51284-3 0  9998
2 35944 003.3273 155.0602 7109495 171.8003 213.1460 02.51060122077863
Source of the keplerian elements: AFSPC